AAL1276 KDFW-KIND

Flight info

Callsign AAL1276
Flight time 1h 41m
Altitude 35000
Route ZACHH4 BSKAT LIT TERGE SMUKE3
Aircraft B738/M-SDE2E3FGHIRWXY/LB1

Departure

Time 2026-05-04 15:53
Airport Dallas Fort Worth International Airport (KDFW)

Arrival

Time 2026-05-04 17:35
Airport Indianapolis International Airport (KIND)
Time Latitude Longitude Altitude Speed Heading
2026-05-04 15:34 32.90547 -97.03506 614 ft 0 kts 269°
2026-05-04 15:46 32.90548 -97.03477 614 ft 4 kts 269°
2026-05-04 15:46 32.90548 -97.03452 615 ft 4 kts 276°
2026-05-04 15:47 32.90542 -97.03421 615 ft 4 kts 295°
2026-05-04 15:47 32.90532 -97.03400 615 ft 0 kts 307°
2026-05-04 15:49 32.90541 -97.03407 620 ft 6 kts 335°
2026-05-04 15:49 32.90605 -97.03365 621 ft 15 kts 69°
2026-05-04 15:50 32.90608 -97.03244 628 ft 15 kts 91°
2026-05-04 15:50 32.90672 -97.03190 615 ft 14 kts
2026-05-04 15:50 32.90806 -97.03188 622 ft 23 kts
2026-05-04 15:50 32.90952 -97.03188 615 ft 19 kts
2026-05-04 15:51 32.91084 -97.03186 628 ft 19 kts 359°
2026-05-04 15:51 32.91211 -97.03187 628 ft 18 kts 360°
2026-05-04 15:51 32.91334 -97.03187 615 ft 17 kts
2026-05-04 15:51 32.91453 -97.03185 619 ft 17 kts
2026-05-04 15:52 32.91557 -97.03157 616 ft 13 kts 56°
2026-05-04 15:52 32.91565 -97.03051 615 ft 13 kts 90°
2026-05-04 15:52 32.91510 -97.02989 615 ft 13 kts 181°
2026-05-04 15:52 32.91277 -97.02991 627 ft 69 kts 180°
2026-05-04 15:53 32.90540 -97.02994 620 ft 140 kts 180°
2026-05-04 15:53 32.89437 -97.03004 1046 ft 166 kts 185°
2026-05-04 15:53 32.88279 -97.02980 2010 ft 164 kts 182°
2026-05-04 15:53 32.87095 -97.02952 2665 ft 184 kts 182°
2026-05-04 15:54 32.85733 -97.02914 2893 ft 207 kts 180°
2026-05-04 15:54 32.84275 -97.02476 3302 ft 225 kts 161°
2026-05-04 15:54 32.82828 -97.01740 4020 ft 228 kts 162°
2026-05-04 15:54 32.81337 -97.01006 4662 ft 236 kts 162°
2026-05-04 15:55 32.79784 -97.00082 5123 ft 263 kts 148°
2026-05-04 15:55 32.78435 -96.98541 5937 ft 272 kts 141°
2026-05-04 15:55 32.77188 -96.96769 6612 ft 291 kts 121°
2026-05-04 15:55 32.76475 -96.94490 7447 ft 298 kts 107°
2026-05-04 15:56 32.76397 -96.92033 8218 ft 307 kts 85°
2026-05-04 15:56 32.76604 -96.89492 9032 ft 311 kts 86°
2026-05-04 15:56 32.76738 -96.86913 9860 ft 314 kts 87°
2026-05-04 15:56 32.76852 -96.84291 10438 ft 327 kts 85°
2026-05-04 15:57 32.77487 -96.81602 10611 ft 349 kts 61°
2026-05-04 15:57 32.78682 -96.78994 10930 ft 367 kts 58°
2026-05-04 15:57 32.79953 -96.76321 11549 ft 374 kts 58°
2026-05-04 15:57 32.81234 -96.73626 12379 ft 374 kts 57°
2026-05-04 15:58 32.82509 -96.70915 13172 ft 378 kts 57°
2026-05-04 15:58 32.83801 -96.68154 13822 ft 385 kts 57°
2026-05-04 15:58 32.85104 -96.65347 14530 ft 390 kts 57°
2026-05-04 15:58 32.86421 -96.62499 15265 ft 395 kts 57°
2026-05-04 15:59 32.87750 -96.59620 16007 ft 399 kts 57°
2026-05-04 15:59 32.89076 -96.56743 16678 ft 404 kts 57°
2026-05-04 15:59 32.90436 -96.53781 17317 ft 410 kts 57°
2026-05-04 15:59 32.91811 -96.50786 17952 ft 415 kts 57°
2026-05-04 16:00 32.93206 -96.47743 18572 ft 420 kts 57°
2026-05-04 16:00 32.94614 -96.44671 19192 ft 425 kts 56°
2026-05-04 16:00 32.96034 -96.41566 19797 ft 429 kts 56°
2026-05-04 16:00 32.97470 -96.38429 20384 ft 434 kts 56°
2026-05-04 16:01 32.98918 -96.35261 20971 ft 437 kts 56°
2026-05-04 16:01 33.00358 -96.32045 21525 ft 443 kts 58°
2026-05-04 16:01 33.01649 -96.28677 22044 ft 450 kts 62°
2026-05-04 16:01 33.02854 -96.25207 22535 ft 455 kts 63°
2026-05-04 16:02 33.04037 -96.21697 23054 ft 458 kts 63°
2026-05-04 16:02 33.05234 -96.18161 23527 ft 462 kts 63°
2026-05-04 16:02 33.07704 -96.11031 24450 ft 469 kts 62°
2026-05-04 16:03 33.08972 -96.07429 24880 ft 473 kts 61°
2026-05-04 16:03 33.10252 -96.03801 25316 ft 476 kts 61°
2026-05-04 16:03 33.11542 -96.00149 25723 ft 479 kts 61°
2026-05-04 16:03 33.12824 -95.96509 26092 ft 483 kts 61°
2026-05-04 16:04 33.14143 -95.92757 26560 ft 485 kts 61°
2026-05-04 16:04 33.16763 -95.85285 27315 ft 492 kts 61°
2026-05-04 16:04 33.18085 -95.81505 27660 ft 496 kts 60°
2026-05-04 16:05 33.19401 -95.77741 27998 ft 499 kts 60°
2026-05-04 16:05 33.20738 -95.73909 28335 ft 502 kts 60°
2026-05-04 16:05 33.23428 -95.66171 29037 ft 506 kts 60°
2026-05-04 16:06 33.24777 -95.62284 29358 ft 509 kts 60°
2026-05-04 16:06 33.28427 -95.51742 30143 ft 516 kts 60°
2026-05-04 16:07 33.30240 -95.46486 30602 ft 517 kts 60°
2026-05-04 16:07 33.34350 -95.34549 31699 ft 518 kts 59°
2026-05-04 16:08 33.35722 -95.30559 32023 ft 518 kts 59°
2026-05-04 16:08 33.39826 -95.18588 32964 ft 520 kts 58°
2026-05-04 16:09 33.42568 -95.10562 33584 ft 520 kts 58°
2026-05-04 16:09 33.45296 -95.02554 34291 ft 519 kts 57°
2026-05-04 16:10 33.47994 -94.94615 35008 ft 516 kts 57°
2026-05-04 16:11 33.53421 -94.78590 35018 ft 513 kts 57°
2026-05-04 16:12 33.61435 -94.54796 35025 ft 514 kts 57°
2026-05-04 16:13 33.66746 -94.38914 35020 ft 515 kts 58°
2026-05-04 16:14 33.72133 -94.22985 35010 ft 509 kts 53°
2026-05-04 16:16 33.80951 -94.04945 35016 ft 500 kts 48°
2026-05-04 16:17 33.89641 -93.86770 35017 ft 501 kts 49°
2026-05-04 16:18 33.96552 -93.72193 35020 ft 501 kts 49°
2026-05-04 16:19 34.05172 -93.54050 35012 ft 497 kts 47°
2026-05-04 16:20 34.14757 -93.36936 35020 ft 492 kts 45°
2026-05-04 16:22 34.24295 -93.19712 35031 ft 494 kts 46°
2026-05-04 16:23 34.35700 -92.98929 35024 ft 494 kts 46°
2026-05-04 16:25 34.47076 -92.78088 35027 ft 495 kts 47°
2026-05-04 16:26 34.60289 -92.53729 35020 ft 494 kts 47°
2026-05-04 16:28 34.69696 -92.36281 35015 ft 493 kts 47°
2026-05-04 16:29 34.82322 -92.13255 34999 ft 481 kts 39°
2026-05-04 16:31 34.93664 -91.98413 34998 ft 479 kts 37°
2026-05-04 16:32 35.07228 -91.80416 34994 ft 480 kts 39°
2026-05-04 16:33 35.16204 -91.68421 35002 ft 479 kts 40°
2026-05-04 16:34 35.22946 -91.59394 35007 ft 478 kts 40°
2026-05-04 16:35 35.36364 -91.41335 34987 ft 477 kts 40°
2026-05-04 16:36 35.43055 -91.32302 34985 ft 477 kts 41°
2026-05-04 16:37 35.49736 -91.23253 34986 ft 477 kts 41°
2026-05-04 16:38 35.58646 -91.11159 34981 ft 477 kts 41°
2026-05-04 16:39 35.69741 -90.96017 34979 ft 477 kts 41°
2026-05-04 16:40 35.78625 -90.83851 34979 ft 478 kts 41°
2026-05-04 16:41 35.89706 -90.68613 34996 ft 477 kts 42°
2026-05-04 16:43 36.00773 -90.53330 34980 ft 477 kts 43°
2026-05-04 16:43 36.07394 -90.44148 34968 ft 476 kts 43°
2026-05-04 16:45 36.20587 -90.25780 34943 ft 475 kts 43°
2026-05-04 16:46 36.31526 -90.10476 34930 ft 474 kts 43°
2026-05-04 16:47 36.40221 -89.98260 34933 ft 473 kts 43°
2026-05-04 16:48 36.48935 -89.85975 34940 ft 474 kts 43°
2026-05-04 16:49 36.57639 -89.73656 34935 ft 474 kts 43°
2026-05-04 16:50 36.66345 -89.61287 34936 ft 475 kts 43°
2026-05-04 16:51 36.72888 -89.51961 34915 ft 477 kts 43°
2026-05-04 16:52 36.81629 -89.39463 34915 ft 478 kts 43°
2026-05-04 16:53 36.88158 -89.30091 34917 ft 478 kts 43°
2026-05-04 16:54 36.96887 -89.17531 34923 ft 478 kts 43°
2026-05-04 16:55 37.09957 -88.98629 34929 ft 479 kts 43°
2026-05-04 16:56 37.20835 -88.82812 34932 ft 479 kts 43°
2026-05-04 16:57 37.27322 -88.73346 34931 ft 479 kts 43°
2026-05-04 16:58 37.35999 -88.60638 34933 ft 479 kts 43°
2026-05-04 17:00 37.49015 -88.41482 34935 ft 480 kts 43°
2026-05-04 17:01 37.59834 -88.25474 34929 ft 480 kts 43°
2026-05-04 17:02 37.68486 -88.12621 34918 ft 480 kts 42°
2026-05-04 17:03 37.74947 -88.02981 34921 ft 481 kts 43°
2026-05-04 17:03 37.81425 -87.93290 34917 ft 481 kts 43°
2026-05-04 17:04 37.90051 -87.80341 34916 ft 481 kts 43°
2026-05-04 17:05 37.94752 -87.74551 34914 ft 457 kts 21°
2026-05-04 17:05 38.00323 -87.70703 34922 ft 457 kts 20°
2026-05-04 17:06 38.08637 -87.64823 34907 ft 458 kts 21°
2026-05-04 17:07 38.14222 -87.60802 34024 ft 462 kts 21°
2026-05-04 17:07 38.16103 -87.59439 33592 ft 460 kts 21°
2026-05-04 17:07 38.19784 -87.56771 32713 ft 458 kts 21°
2026-05-04 17:07 38.22555 -87.54763 32161 ft 455 kts 21°
2026-05-04 17:08 38.25289 -87.52777 31692 ft 450 kts 21°
2026-05-04 17:08 38.30654 -87.48879 30754 ft 438 kts 21°
2026-05-04 17:08 38.33314 -87.46950 30307 ft 442 kts 22°
2026-05-04 17:09 38.36016 -87.44997 29840 ft 448 kts 22°
2026-05-04 17:09 38.38703 -87.43044 29349 ft 442 kts 22°
2026-05-04 17:09 38.41357 -87.41107 28868 ft 437 kts 22°
2026-05-04 17:10 38.46571 -87.37297 27921 ft 428 kts 23°
2026-05-04 17:10 38.54214 -87.31718 26531 ft 419 kts 23°
2026-05-04 17:11 38.55903 -87.30486 26221 ft 422 kts 23°
2026-05-04 17:11 38.58451 -87.28623 25752 ft 421 kts 24°
2026-05-04 17:11 38.63485 -87.24931 24809 ft 412 kts 24°
2026-05-04 17:12 38.66755 -87.22526 24203 ft 407 kts 24°
2026-05-04 17:12 38.70824 -87.19502 23452 ft 402 kts 24°
2026-05-04 17:13 38.78035 -87.14128 22110 ft 400 kts 24°
2026-05-04 17:14 38.85122 -87.08836 20778 ft 388 kts 24°
2026-05-04 17:14 38.87447 -87.07100 20345 ft 385 kts 24°
2026-05-04 17:14 38.92066 -87.03649 19483 ft 382 kts 24°
2026-05-04 17:15 38.94368 -87.01926 19064 ft 383 kts 24°
2026-05-04 17:15 38.98993 -86.98533 18325 ft 382 kts 23°
2026-05-04 17:16 39.03625 -86.95206 17760 ft 379 kts 23°
2026-05-04 17:16 39.10541 -86.90193 16711 ft 379 kts 24°
2026-05-04 17:17 39.12792 -86.88488 16371 ft 373 kts 25°
2026-05-04 17:17 39.19434 -86.83382 15337 ft 372 kts 26°
2026-05-04 17:18 39.21600 -86.81550 14989 ft 373 kts 28°
2026-05-04 17:18 39.26014 -86.78219 14311 ft 364 kts 24°
2026-05-04 17:19 39.30231 -86.74502 13620 ft 370 kts 31°
2026-05-04 17:19 39.34349 -86.70570 12946 ft 364 kts 30°
2026-05-04 17:20 39.38494 -86.66800 12278 ft 365 kts 29°
2026-05-04 17:20 39.42705 -86.63237 11588 ft 352 kts 21°
2026-05-04 17:20 39.44890 -86.61879 11260 ft 344 kts 19°
2026-05-04 17:21 39.49115 -86.59201 10656 ft 334 kts 21°
2026-05-04 17:21 39.53115 -86.56499 10083 ft 315 kts 21°
2026-05-04 17:22 39.55018 -86.55152 9799 ft 311 kts 24°
2026-05-04 17:22 39.56859 -86.53684 9507 ft 310 kts 26°
2026-05-04 17:23 39.62267 -86.49238 8627 ft 306 kts 26°
2026-05-04 17:23 39.64071 -86.47768 8331 ft 305 kts 26°
2026-05-04 17:23 39.67633 -86.44877 7753 ft 300 kts 26°
2026-05-04 17:24 39.69403 -86.43441 7458 ft 301 kts 26°
2026-05-04 17:24 39.74664 -86.39273 6599 ft 288 kts 26°
2026-05-04 17:25 39.76366 -86.37932 6328 ft 284 kts 25°
2026-05-04 17:25 39.79634 -86.35129 5975 ft 278 kts 39°
2026-05-04 17:26 39.82231 -86.31658 5964 ft 262 kts 42°
2026-05-04 17:26 39.86047 -86.26642 5963 ft 258 kts 40°
2026-05-04 17:27 39.88635 -86.23488 5938 ft 256 kts 37°
2026-05-04 17:27 39.91299 -86.20427 5460 ft 256 kts 38°
2026-05-04 17:28 39.92841 -86.16480 5049 ft 255 kts 104°
2026-05-04 17:29 39.89809 -86.11306 4945 ft 232 kts 156°
2026-05-04 17:29 39.85893 -86.12885 4309 ft 209 kts 220°
2026-05-04 17:30 39.82838 -86.16492 3517 ft 183 kts 224°
2026-05-04 17:31 39.81136 -86.18671 3065 ft 168 kts 224°
2026-05-04 17:31 39.78602 -86.21908 2394 ft 167 kts 223°
2026-05-04 17:32 39.77056 -86.23886 1976 ft 146 kts 222°
2026-05-04 17:33 39.74960 -86.26563 1424 ft 138 kts 222°
2026-05-04 17:33 39.74268 -86.27452 1229 ft 141 kts 223°
2026-05-04 17:34 39.72185 -86.30116 783 ft 126 kts 222°
2026-05-04 17:34 39.71673 -86.30764 779 ft 65 kts 224°
2026-05-04 17:35 39.71340 -86.30889 780 ft 15 kts 45°
2026-05-04 17:35 39.71556 -86.30614 780 ft 23 kts 44°
2026-05-04 17:35 39.71666 -86.30475 780 ft 22 kts 43°
2026-05-04 17:36 39.71774 -86.30337 780 ft 21 kts 44°
2026-05-04 17:36 39.71878 -86.30202 780 ft 21 kts 44°
2026-05-04 17:36 39.71981 -86.30074 780 ft 20 kts 45°
2026-05-04 17:36 39.72079 -86.29947 780 ft 20 kts 43°
2026-05-04 17:37 39.72175 -86.29825 780 ft 19 kts 44°
2026-05-04 17:37 39.72247 -86.29702 780 ft 16 kts 97°
2026-05-04 17:37 39.72169 -86.29586 780 ft 20 kts 134°
2026-05-04 17:37 39.72061 -86.29444 780 ft 22 kts 134°
2026-05-04 17:38 39.71954 -86.29303 780 ft 18 kts 135°
2026-05-04 17:38 39.71860 -86.29313 780 ft 16 kts 229°
2026-05-04 17:38 39.71826 -86.29444 780 ft 15 kts 232°
2026-05-04 17:38 39.71743 -86.29538 780 ft 16 kts 223°
2026-05-04 17:39 39.71635 -86.29677 780 ft 8 kts 250°
2026-05-04 17:39 39.71654 -86.29726 780 ft 3 kts 311°
2026-05-04 17:39 39.71661 -86.29736 780 ft 0 kts 310°